www.pogodaiklimat.ru

Погода и климат >> Архив погоды >> Малайзия >> Мири


ПОГОДА в Мири

  • Прогноз погоды в Мири
  • Монитор погоды в Мири

АРХИВ ПОГОДЫ в Мири

Время (UTC), дата Ветер
(напр.,м/с)
 
Видим.   Явления Облачность Т
(С)
Тd
(С)
f
(%)
Тe
(С)
Тes
(С)
Комфортность P
(гПа)
Po
(гПа)
Тmin
(С)
Tmax
(С)
R
(мм)
R24
(мм)
S
(см)
21 9.01 штиль 0 15 км 9/3 420 м
[Sc Ac As Ci fib]
+24.6 +24.6 100 +34 +34 очень
душно
1009.8 1007.9
00 10.01 штиль 0 25 км 9/3 210 м
[St Ac lent Ci fib]
+26.1 +25.6 97 +38 +40 очень
душно
1011.4 1009.5 +22.8 0.2
03 10.01 СЗ 2 30 км 9/4 480 м
[Cu med, cong Ac lent Ci fib]
+30.9 +26.0 75 +46 +52 опасность
перегрева
1010.8 1008.9
06 10.01 СЗ 4 30 км 9/5 450 м
[Cb cap Ac trans Ci fib]
+31.4 +26.0 73 +47 +50 опасность
перегрева
1008.6 1006.7
09 10.01 С 3 30 км 9/4 480 м
[Cu hum Ac trans Ci fib]
+31.2 +23.4 63 +42 +42 опасность
перегрева
1007.7 1005.8
12 10.01 СВ 2 15 км 9/3 480 м
[Sc Ac lent Ci fib]
+26.6 +23.7 84 +36 +36 очень
душно
1009.7 1007.8 +31.7
15 10.01 В 1 15 км 9/3 480 м
[Sc Ac trans Ci fib]
+25.2 +23.9 93 +35 +35 очень
душно
1010.7 1008.7
18 10.01 штиль 0 15 км 9/3 480 м
[Sc Ac trans Ci fib]
+23.9 +23.4 97 +32 +32 очень
душно
1010.1 1008.1
21 10.01 ЮВ 2 15 км 9/3 480 м
[Sc Ac trans Ci fib]
+24.6 +23.9 96 +34 +34 очень
душно
1009.5 1007.6
00 11.01 ЮВ 2 30 км 9/1 420 м
[Cu hum Ac trans Ci fib]
+27.1 +24.6 86 +38 +40 очень
душно
1010.8 1008.9 +23.7
03 11.01 В 3 30 км 9/4 480 м
[Cu hum Ac trans Ci fib]
+31.7 +23.5 62 +43 +48 опасность
перегрева
1010.6 1008.7
06 11.01 СЗ 4 30 км 9/4 480 м
[Cu med, cong Ac trans Ci fib]
+31.4 +24.7 68 +45 +48 опасность
перегрева
1008.5 1006.6
09 11.01 С 4 30 км 9/4 450 м
[Cb cap Ac lent Ci fib]
+31.0 +23.5 64 +42 +42 опасность
перегрева
1007.6 1005.7
12 11.01 СВ 3 15 км 9/3 480 м
[Sc Ac As Ci fib]
+27.4 +25.1 87 +39 +39 очень
душно
1009.6 1007.7 +32.6
15 11.01 В 2 15 км 9/3 480 м
[Sc Ac As Ci fib]
+26.3 +25.0 93 +38 +38 очень
душно
1010.5 1008.6
18 11.01 ЮВ 3 15 км 9/3 480 м
[Sc Ac As Ci fib]
+26.0 +24.7 93 +37 +37 очень
душно
1009.2 1007.3
21 11.01 ЮВ 2 15 км 9/4 150 м
[Sc Ac As Ci fib]
+25.2 +24.4 95 +35 +35 очень
душно
1009.3 1007.4
00 12.01 штиль 0 30 км 9/4 450 м
[Cb cap Ac lent Ci fib]
+27.2 +24.2 84 +38 +39 очень
душно
1011.4 1009.5 +24.7
03 12.01 СВ 2 30 км 9/4 480 м
[Cu med, cong Ac trans Ci fib]
+31.1 +25.2 71 +45 +51 опасность
перегрева
1010.5 1008.6
06 12.01 З 3 15 км осадки на расстоянии 9/4 450 м
[Cb cap Ac trans Ci fib]
+30.2 +25.8 77 +45 +50 опасность
перегрева
1008.5 1006.6
09 12.01 С 5 30 км 9/3 480 м
[Cu hum Ac trans Ci fib]
+30.4 +25.7 76 +45 +45 опасность
перегрева
1008.1 1006.2
12 12.01 СВ 3 15 км 9/3 480 м
[Sc Ac trans Ci fib]
+27.1 +25.3 90 +39 +39 очень
душно
1009.7 1007.8 +32.0
15 12.01 В 2 15 км 9/3 480 м
[Sc Ac trans Ci fib]
+26.8 +25.3 92 +39 +39 очень
душно
1010.7 1008.8
18 12.01 штиль 0 15 км 9/3 480 м
[Sc Ac trans Ci fib]
+25.9 +25.1 95 +37 +37 очень
душно
1008.9 1007.0
21 12.01 штиль 0 15 км 9/3 480 м
[Sc Ac trans Ci fib]
+25.2 +24.6 96 +35 +35 очень
душно
1008.8 1006.9
00 13.01 штиль 0 25 км 9/3 480 м
[Cu hum Ac trans Ci fib]
+27.0 +25.5 92 +40 +41 очень
душно
1010.5 1008.6 +24.8
03 13.01 В 4 20 км 9/4 420 м
[Cb cap Ac trans Ci fib]
+27.1 +24.4 85 +38 +42 очень
душно
1010.7 1008.8
06 13.01 С 4 30 км 9/4 480 м
[Cu med, cong Ac trans Ci fib]
+31.4 +25.1 69 +45 +48 опасность
перегрева
1007.2 1005.3
09 13.01 СВ 5 30 км 9/3 480 м
[Cu hum Ac lent Ci fib]
+30.5 +24.3 70 +43 +43 опасность
перегрева
1006.7 1004.8
12 13.01 СВ 1 15 км 9/1 480 м
[Sc Ac trans Ci fib]
+26.3 +23.8 86 +36 +36 очень
душно
1009.3 1007.4 +32.1
15 13.01 С 1 15 км 9/3 480 м
[Sc Ac trans Ci fib]
+26.0 +23.6 87 +35 +35 очень
душно
1009.5 1007.6
18 13.01 ЮВ 1 15 км 9/3 480 м
[Sc Ac trans Ci fib]
+23.6 +23.1 97 +31 +31 очень
душно
1008.6 1006.6
21 13.01 Ю 1 15 км 9/3 480 м
[Sc Ac trans Ci fib]
+22.9 +22.6 98 +31 +31 очень
душно
1008.3 1006.3
00 14.01 штиль 0 25 км 9/1 420 м
[Cu hum Ac lent Ci fib]
+25.7 +24.9 95 +36 +38 очень
душно
1009.6 1007.7 +22.8
03 14.01 СЗ 2 30 км 9/4 480 м
[Cu hum Ac trans Ci fib]
+29.9 +25.3 76 +43 +49 опасность
перегрева
1009.3 1007.4
06 14.01 СЗ 4 30 км 9/4 480 м
[Cu hum Ac trans Ci fib]
+30.8 +25.0 71 +44 +48 опасность
перегрева
1006.6 1004.7
09 14.01 СЗ 3 30 км 9/4 450 м
[Cu hum Ac trans Ci fib]
+30.4 +24.3 70 +42 +43 опасность
перегрева
1005.8 1003.9
12 14.01 С 2 15 км 9/3 480 м
[Sc Ac trans Ci fib]
+27.5 +24.9 86 +39 +39 очень
душно
1008.5 1006.6 +31.2
15 14.01 штиль 0 15 км 9/3 480 м
[Sc Ac trans Ci fib]
+26.4 +25.2 93 +38 +38 очень
душно
1009.3 1007.4
18 14.01 В 2 15 км 9/3 480 м
[Sc Ac trans Ci fib]
+25.6 +24.8 95 +36 +36 очень
душно
1008.0 1006.1
21 14.01 ЮВ 2 15 км 9/1 480 м
[Sc Ac trans Ci fib]
+25.2 +24.3 95 +35 +35 очень
душно
1007.5 1005.6
00 15.01 ЮВ 2 28 км 9/3 300 м
[Cu hum Ac trans Ci fib]
+26.4 +24.3 88 +37 +38 очень
душно
1009.2 1007.3 +24.8
06 15.01 СЗ 4 30 км 9/4 480 м
[Cu med, cong Ac trans Ci fib]
+30.4 +24.9 72 +43 +47 опасность
перегрева
1007.2 1005.3
09 15.01 С 3 30 км 9/5 450 м
[Cb cap Ac trans Ci fib]
+28.8 +25.5 82 +42 +43 опасность
перегрева
1006.7 1004.8
12 15.01 В 3 15 км 9/4 480 м
[Sc Ac As]
+26.3 +25.4 95 +38 +38 очень
душно
1009.0 1007.1 +32.2
15 15.01 В 2 15 км 9/4 480 м
[Sc Ac As]
+25.5 +24.1 92 +35 +35 очень
душно
1009.9 1008.0
18 15.01 ЮВ 3 7000 м слаб. дождь 9/4 480 м
[Sc Ac As]
+24.7 +23.8 95 +34 +34 очень
душно
1008.4 1006.5 2
21 15.01 СВ 1 15 км 9/4 90 м
[Sc Ac As Ci fib]
+24.2 +23.7 97 +33 +33 очень
душно
1007.6 1005.7
00 16.01 В 2 30 км {дождь} 9/3 480 м
[Sc Ac trans Ci fib]
+25.3 +23.7 91 +34 +36 очень
душно
1009.9 1008.0 +23.9 2
03 16.01 ЮВ 2 30 км 9/4 480 м
[Cu med, cong Ac trans Ci fib]
+30.8 +24.9 71 +44 +50 опасность
перегрева
1009.8 1007.9
06 16.01 СЗ 3 30 км 9/5 480 м
[Cu hum Ac trans Ci fib]
+30.0 +24.7 73 +43 +46 опасность
перегрева
1007.6 1005.7
09 16.01 СВ 3 8000 м слаб. дождь 9/5 450 м
[Cb cap Ac As]
+26.5 +25.6 95 +39 +39 очень
душно
1007.0 1005.1
12 16.01 штиль 0 15 км в посл. час дождь 9/5 480 м
[Sc Ac As]
+25.7 +25.2 97 +37 +37 очень
душно
1009.2 1007.3 +31.2 5
15 16.01 В 2 15 км 9/4 420 м
[Sc Ac As]
+24.5 +23.8 96 +33 +33 очень
душно
1010.3 1008.3
18 16.01 Ю 1 15 км в посл. час дождь 9/4 420 м
[Sc Ac As]
+24.4 +23.9 97 +33 +33 очень
душно
1009.1 1007.2 1

 

Местоположение метеостанции Мири (Малайзия): широта 4.33 долгота 113.98 высота над уровнем моря 18 м.

В архиве по умолчанию представлена погода в Мири за последнюю неделю. Архивные данные за месяц целиком и за предыдущие месяцы, начиная с января 2011 года, Вы можете получить, выбрав интересующий диапазон дат из раскрывающегося списка и нажав кнопку "Ввод!".


*Определитесь, кто Вы:
робот инопланетянин человек

Внимание! Время в таблицах - всемирное. Для получения местного времени необходимо прибавить поправку, которая равна 8 ч.

Смотрите также архив погоды в соседних городах и на ближайших метеорологических станциях:

Погода в Бруней аэропорту (Бруней) (125 км)
Погода в Бинталу (Малайзия) (164 км)
Погода в Лабуане (Малайзия) (177 км)
Погода в Лонгбаване (Индонезия) (200 км)
Погода в Кота-Кинабалу (Малайзия) (290 км)
Погода в Сибу (Малайзия) (326 км)
Погода на Путусиббау (Индонезия) (405 км)
Погода в Танджунгселоре (Индонезия) (407 км)
Погода в Таракане (Индонезия) (413 км)
Погода в Тавау (Малайзия) (433 км)

Пояснения к столбцам:

Ветер - указаны скорость ветра в м/с - средняя за 10 мин, порывы в срок и между сроками (в фигурных скобках) и направление, откуда дует ветер: С - северный, СВ - северо-восточный, В - восточный, ЮВ - юго-восточный, Ю - южный, ЮЗ - юго-западный, З - западный, СЗ - северо-западный.
Видимость - горизонтальная дальность видимости в метрах или километрах. При видимости от 1 до 10 км при отсутствии осадков обычно наблюдается дымка, при ухудшении видимости до 1 км и менее - туман. В сухую погоду видимость может ухудшаться дымом, пылью или мглою.
Явления - указаны атмосферные явления, наблюдавшиеся в срок или в последний час перед сроком; фигурными скобками обозначены явления, наблюдавшиеся между сроками (за 1-3 часа до срока); квадратными скобками обозначены град или гололедные отложения с указанием их диаметра в мм.
Облачность - указаны через наклонную черту общая и нижняя облачность в баллах и высота нижней границы облаков в метрах; квадратными скобками обозначены формы облаков: Ci - перистые, Cs - перисто-слоистые, Cc - перисто-кучевые, Ac - высококучевые, As - высокослоистые, Sc - слоисто-кучевые, Ns - слоисто-дождевые, Cu - кучевые, Cb - кучево-дождевые. Подробнее классификацию облаков см. в Атласе облаков (PDF).
T - Температура воздуха - температура, измеренная на высоте 2 м над землей.
Td - Температура точки росы - температура, при понижении до которой содержащийся в воздухе водяной пар достигнет насыщения.
f - Относительная влажность воздуха - влажноcть воздуха, измеренная на высоте 2 м над землей.
Te - Эффективная температура - температура, которую ощущает одетый по сезону человек в тени. Характеристика душности погоды. При расчете учитывается влияние влажности воздуха и скорости ветра на теплоощущения человека.
Tes - Эффективная температура на солнце - температура, которую ощущает человек, с поправкой на солнечный нагрев. Характеристика знойности погоды. Зависит от высоты солнца над горизонтом, облачности и скорости ветра. Ночью, в пасмурную погоду, а также при ветре 12 м/с и более поправка равна нулю.
P - Атмосферное давление - приведенное к уровню моря атмосферное давление.
Po - Атмосферное давление - измеренное на уровне метеостанции атмосферное давление.
Tmin - Минимальная температура - минимум температуры воздуха на высоте 2 м над землей.
Tmax - Максимальная температура - максимум температуры воздуха на высоте 2 м над землей.
R - Количество осадков - Количество выпавших осадков за период времени, мм. При наведении курсора мыши на число - период времени, за который выпало указанное количество осадков.
R24 - Количество осадков - Количество выпавших осадков за 24 часа, мм.
S - Снежный покров - Высота снежного покрова, см. При наведении курсора мыши на число - состояние снежного покрова и степень покрытия местности в баллах.